Weather Roundup
Issued by NWS

Home | Current Version | Previous Version | Text Only | Print | Product List | Glossary On
Versions: 1 2 3 4 5 6 7 8 9 10 11 12 13 14 15 16 17 18 19 20 21 22 23 24 25 26 27 28 29 30 31 32 33 34 35 36 37 38 39 40 41 42 43 44 45 46 47 48 49 50
000
NZUS93 KARX 232210
HRRWXR

CURRENT HOURLY OBSERVATIONS ACROSS
MUCH OF THE UPPER MISSISSIPPI VALLEY
NATIONAL WEATHER SERVICE LA CROSSE WI
400 PM CST FRI FEB 23 2018


...SOUTHEAST MINNESOTA...


CITY           SKY/WX    TMP DP  RH WIND       PRES   REMARKS
ROCHESTER      CLOUDY    22  19  89 W12       30.22R FOG     WCI  10
ROCHESTER/MAYO CLOUDY    23  20  89 W12       30.23R WCI  12
WINONA         CLOUDY    30  25  80 NW6       30.24R WCI  24
AUSTIN         FAIR      25  19  80 W9        30.23R WCI  15
ALBERT LEA     FAIR      25  19  80 W6        30.24R WCI  18
DODGE CENTER   CLOUDY    21  18  86 W9        30.22R FOG     WCI  11
PRESTON        FAIR      24  20  86 W12       30.23R WCI  13
OWATONNA       FAIR      25  19  80 SW8       30.23R WCI  16
FARIBAULT      FAIR      25  19  80 SW10      30.23R WCI  15
$$

...ELSEWHERE IN MINNESOTA...


CITY           SKY/WX    TMP DP  RH WIND       PRES   REMARKS
MINNEAPOLIS    FAIR      31  22  69 W10       30.21R WCI  22
INTNL FALLS    FAIR      28  16  60 W12       30.07R WCI  18
DULUTH         CLOUDY    32  22  66 W12       30.08R WCI  23
RED WING       FAIR      30  19  64 W10       30.21R WCI  21
REDWOOD FALLS  CLOUDY    25  19  78 W16       30.26R WCI  12
MANKATO        FAIR      25  19  78 W10       30.25R WCI  15
WORTHINGTON    SUNNY     26  20  77 W12       30.25R WCI  16
FAIRMONT       MOSUNNY   27  20  75 W9        30.26S WCI  18
$$

...SOUTHWEST WISCONSIN...


CITY           SKY/WX    TMP DP  RH WIND       PRES   REMARKS
LA CROSSE      PTSUNNY   32  25  75 NW12      30.23R WCI  23
PRAIRIE DU CHI FAIR      34  24  66 W13       30.24R WCI  25
BOSCOBEL       FAIR      36  25  64 W8        30.22R WCI  30
LONE ROCK      FAIR      37  28  70 W10       30.20R WCI  30
PLATTEVILLE    FAIR      35  30  84 W14       30.22R WCI  25
FORT MC COY    FAIR      32  24  73 W8        30.22R WCI  25
CAMP DOUGLAS   PTSUNNY   33  25  73 W10       30.18R WCI  24
MAUSTON-NEW LI MOCLDY    33  25  73 W10       30.18R HAZE    WCI  24
VIROQUA        FAIR      32  27  81 W9        30.19R WCI  24
WIS DELLS      FAIR      35  26  69 W12       30.17R WCI  27
$$

...ELSEWHERE IN WISCONSIN...


CITY           SKY/WX    TMP DP  RH WIND       PRES   REMARKS
MILWAUKEE      CLOUDY    39  32  76 W13G21    30.18R WCI  31
MADISON        PTSUNNY   38  29  70 W7        30.18R WCI  33
GREEN BAY      CLOUDY    36  28  73 W16G25    30.12R WCI  26
EAU CLAIRE     CLOUDY    29  22  75 W8        30.18R WCI  21
BLACK RVR FLS  CLOUDY    31  22  69 W8        30.20R WCI  24
MEDFORD        CLOUDY    28  22  80 W9G18     30.12R WCI  19
WAUSAU         CLOUDY    30  23  75 W14       30.11R WCI  19
WIS RAPIDS     CLOUDY    31  23  72 W12       30.17R WCI  22
MARSHFIELD     CLOUDY    29  23  78 W16       30.14R WCI  17
RICE LAKE      PTSUNNY   31  22  69 W8        30.16S WCI  23
$$

...NORTHEAST IOWA...


CITY           SKY/WX    TMP DP  RH WIND       PRES   REMARKS
WATERLOO       PTSUNNY   31  25  78 W8        30.27R WCI  23
DUBUQUE        FAIR      31  25  78 W14       30.23R WCI  21
DECORAH        NOT AVBL
MASON CITY     MOSUNNY   26  20  77 W12       30.27R WCI  16
CHARLES CITY   NOT AVBL
OELWEIN        NOT AVBL
$$

...ELSEWHERE IN IOWA...


CITY           SKY/WX    TMP DP  RH WIND       PRES   REMARKS
DES MOINES     CLOUDY    33  25  72 N13       30.28S WCI  24
IOWA CITY      FAIR      38  28  67 NW9       30.28R WCI  31
FORT DODGE     NOT AVBL
MARSHALLTOWN   CLOUDY    29  25  85 W10       30.28R WCI  20
CEDAR RAPIDS   FAIR      33  26  75 NW15      30.26R WCI  23
$$

...NORTHERN ILLINOIS...


CITY           SKY/WX    TMP DP  RH WIND       PRES   REMARKS
CHICAGO-OHARE  CLOUDY    38  33  82 W13       30.21R WCI  30
CHICAGO-MIDWAY CLOUDY    39  36  89 W12       30.22R WCI  32
MOLINE         FAIR      39  31  72 W12       30.26R WCI  32
ROCKFORD       CLOUDY    39  31  72 W13       30.23R WCI  31
PEORIA         CLOUDY    38  34  85 W8        30.27R WCI  32
$$

NOTE: "FAIR" INDICATES FEW OR NO CLOUDS BELOW 12,000 FEET WITH NO
SIGNIFICANT WEATHER AND/OR OBSTRUCTIONS TO VISIBILITY. WIND
SPEEDS ARE IN MILES-PER-HOUR.




USA.gov is the U.S. government's official web portal to all federal, state and local government web resources and services.